Location: Bh?mavarapp?du
(16.7041°N, 80.6518°E)
Time: 02:14:43
(UTC+00:00)

OAO 3 Rocket - Pass Details

Date: 21 April 2021
Orbit: 629 x 682 km, 35.0° (Epoch: 07 May)

Event Time Altitude Azimuth Distance (km) Brightness Sun altitude
Exits shadow 23:33:20 15° 257° (WSW) 1,800 4.8 -11.1°
Maximum altitude 23:37:16 50° 330° (NNW) 859 3.7 -10.2°
Drops below altitude 10° 23:42:04 10° 46° (NE) 2,107 6.9 -9.1°
Sets 23:44:31 0° 51° (NE) 3,018 8.0 -8.5°
